NORTHEAST SUFFOLK  -  Winter Weather Advisory Winter Weather Advisory     Winter Weather Advisory Winter Weather Advisory        NORTHERN NASSAU  -  Winter Weather Advisory Winter Weather Advisory        NORTHWEST SUFFOLK  -  Winter Weather Advisory Winter Weather Advisory     Winter Weather Advisory Winter Weather Advisory        SOUTHEAST SUFFOLK  -  Winter Weather Advisory Winter Weather Advisory     Winter Weather Advisory Winter Weather Advisory        SOUTHERN NASSAU  -  Winter Weather Advisory Winter Weather Advisory        SOUTHWEST SUFFOLK  -  Winter Weather Advisory Winter Weather Advisory     Winter Weather Advisory Winter Weather Advisory      

Active alerts

Northern Nassau
  Details for Northern Nassau Winter Weather Advisory
Southern Nassau
  Details for Southern Nassau Winter Weather Advisory
Northwest Suffolk
  Details for Northwest Suffolk Winter Weather Advisory  +1 additional alert
Southwest Suffolk
  Details for Southwest Suffolk Winter Weather Advisory  +1 additional alert
Northeast Suffolk
  Details for Northeast Suffolk Winter Weather Advisory  +1 additional alert
Southeast Suffolk
  Details for Southeast Suffolk Winter Weather Advisory  +1 additional alert


WXM80 ListenWXM80 Stop

You find our weather info also at:

UK Metoffice

WeatherCloud

Weather Underground

Northeastern Weather Network

AWEKAS

Citizen Weather Observer Program (CWOP)

HAMweather, WeatherForYou, PWS Weather


Weather Underground History page Text

Daily Summary for July 26, 2017 Units:  Both    English   Metric
« Previous Day
Next Day »
Daily Weekly Monthly Yearly Custom
  High: Low: Average:
Temperature: 80.8 °F /  27.1 °C 62.4 °F /  16.9 °C 70.4 °F /  21.3 °C
Dew Point: 64.1 °F /  17.8 °C 58.2 °F /  14.6 °C 60.5 °F /  15.8 °C
Humidity: 92 % 51 % 72 %
Wind Speed: 5.8 mph /  9.3 km/h - 1.1 mph /  1.8 km/h
Wind Gust: 9.2 mph /  14.8 km/h - -
Wind:- - East
Pressure: 30.22 in /  1023.2 hPa 30.09 in /  1018.8 hPa -
Precipitation: 0.01 in /  0.25 mm    
Historical Graphs
 
 
Tabular Data for July 26, 2017
Time Temperature Dew Point Pressure Wind Wind Speed Wind Gust Humidity Rainfall Rate (Hourly)
00:03 65.5 °F /  18.6 °C 60.5 °F /  15.8 °C 30.17 in /  1021.6 hPa ENE 2.3 mph /  3.7 km/h 8.1 mph /  13 km/h 84 % 0.00 in /  0 mm
00:08 65.5 °F /  18.6 °C 60.2 °F /  15.7 °C 30.17 in /  1021.6 hPa NE 1.5 mph /  2.4 km/h 2.3 mph /  3.7 km/h 83 % 0.00 in /  0 mm
00:13 65.6 °F /  18.7 °C 60.0 °F /  15.6 °C 30.17 in /  1021.6 hPa ENE 0.9 mph /  1.4 km/h 3.5 mph /  5.6 km/h 82 % 0.00 in /  0 mm
00:18 65.6 °F /  18.7 °C 60.0 °F /  15.6 °C 30.17 in /  1021.6 hPa ENE 2.8 mph /  4.5 km/h 8.1 mph /  13 km/h 82 % 0.00 in /  0 mm
00:23 65.7 °F /  18.7 °C 59.7 °F /  15.4 °C 30.18 in /  1021.9 hPa ENE 2.9 mph /  4.7 km/h 7.0 mph /  11.3 km/h 81 % 0.00 in /  0 mm
00:28 65.8 °F /  18.8 °C 59.5 °F /  15.3 °C 30.17 in /  1021.6 hPa ENE 3.1 mph /  5 km/h 4.6 mph /  7.4 km/h 80 % 0.00 in /  0 mm
00:33 65.8 °F /  18.8 °C 59.8 °F /  15.4 °C 30.17 in /  1021.6 hPa NE 0.6 mph /  1 km/h 2.3 mph /  3.7 km/h 81 % 0.00 in /  0 mm
00:38 65.9 °F /  18.8 °C 59.6 °F /  15.3 °C 30.17 in /  1021.6 hPa ENE 2.1 mph /  3.4 km/h 4.6 mph /  7.4 km/h 80 % 0.00 in /  0 mm
00:43 65.9 °F /  18.8 °C 59.6 °F /  15.3 °C 30.17 in /  1021.6 hPa NE 1.6 mph /  2.6 km/h 3.5 mph /  5.6 km/h 80 % 0.00 in /  0 mm
00:48 65.9 °F /  18.8 °C 59.6 °F /  15.3 °C 30.17 in /  1021.6 hPa NE 0.3 mph /  0.5 km/h 3.5 mph /  5.6 km/h 80 % 0.00 in /  0 mm
00:53 66.0 °F /  18.9 °C 60.0 °F /  15.6 °C 30.17 in /  1021.6 hPa ENE 2.1 mph /  3.4 km/h 3.5 mph /  5.6 km/h 81 % 0.00 in /  0 mm
00:58 66.0 °F /  18.9 °C 60.0 °F /  15.6 °C 30.17 in /  1021.6 hPa ENE 0.9 mph /  1.4 km/h 2.3 mph /  3.7 km/h 81 % 0.00 in /  0 mm
01:03 66.1 °F /  18.9 °C 59.7 °F /  15.4 °C 30.18 in /  1021.9 hPa Calm     80 % 0.00 in /  0 mm
01:08 66.0 °F /  18.9 °C 59.7 °F /  15.4 °C 30.18 in /  1021.9 hPa ENE 0.5 mph /  0.8 km/h 2.0 mph /  3.2 km/h 80 % 0.00 in /  0 mm
01:13 66.0 °F /  18.9 °C 59.7 °F /  15.4 °C 30.18 in /  1021.9 hPa Calm     80 % 0.00 in /  0 mm
01:18 65.9 °F /  18.8 °C 59.6 °F /  15.3 °C 30.18 in /  1021.9 hPa Calm   1.2 mph /  1.9 km/h 80 % 0.00 in /  0 mm
01:23 65.9 °F /  18.8 °C 59.6 °F /  15.3 °C 30.18 in /  1021.9 hPa Calm     80 % 0.00 in /  0 mm
01:28 65.8 °F /  18.8 °C 59.5 °F /  15.3 °C 30.18 in /  1021.9 hPa Calm     80 % 0.00 in /  0 mm
01:33 65.8 °F /  18.8 °C 59.5 °F /  15.3 °C 30.19 in /  1022.2 hPa Calm     80 % 0.00 in /  0 mm
01:38 65.6 °F /  18.7 °C 59.6 °F /  15.3 °C 30.18 in /  1021.9 hPa Calm     81 % 0.00 in /  0 mm
01:43 65.5 °F /  18.6 °C 59.5 °F /  15.3 °C 30.19 in /  1022.2 hPa Calm     81 % 0.00 in /  0 mm
01:48 65.3 °F /  18.5 °C 59.3 °F /  15.2 °C 30.18 in /  1021.9 hPa Calm     81 % 0.00 in /  0 mm
01:53 65.2 °F /  18.4 °C 59.6 °F /  15.3 °C 30.19 in /  1022.2 hPa Calm   1.2 mph /  1.9 km/h 82 % 0.00 in /  0 mm
01:58 65.0 °F /  18.3 °C 59.4 °F /  15.2 °C 30.19 in /  1022.2 hPa NE 0.1 mph /  0.2 km/h 2.0 mph /  3.2 km/h 82 % 0.00 in /  0 mm
02:03 64.9 °F /  18.3 °C 59.6 °F /  15.3 °C 30.18 in /  1021.9 hPa Calm   1.2 mph /  1.9 km/h 83 % 0.00 in /  0 mm
02:09 64.7 °F /  18.2 °C 59.4 °F /  15.2 °C 30.18 in /  1021.9 hPa ENE 0.5 mph /  0.8 km/h 2.0 mph /  3.2 km/h 83 % 0.00 in /  0 mm
02:14 64.5 °F /  18.1 °C 59.6 °F /  15.3 °C 30.18 in /  1021.9 hPa Calm   2.3 mph /  3.7 km/h 84 % 0.00 in /  0 mm
02:19 64.4 °F /  18 °C 59.5 °F /  15.3 °C 30.18 in /  1021.9 hPa North 1.0 mph /  1.6 km/h 4.0 mph /  6.4 km/h 84 % 0.00 in /  0 mm
02:24 64.3 °F /  17.9 °C 59.4 °F /  15.2 °C 30.18 in /  1021.9 hPa North 0.1 mph /  0.2 km/h 1.2 mph /  1.9 km/h 84 % 0.00 in /  0 mm
02:29 64.2 °F /  17.9 °C 59.6 °F /  15.3 °C 30.18 in /  1021.9 hPa NNE 0.4 mph /  0.6 km/h 2.3 mph /  3.7 km/h 85 % 0.00 in /  0 mm
02:34 64.1 °F /  17.8 °C 59.5 °F /  15.3 °C 30.18 in /  1021.9 hPa NNE 0.1 mph /  0.2 km/h 3.5 mph /  5.6 km/h 85 % 0.00 in /  0 mm
02:39 64.0 °F /  17.8 °C 59.4 °F /  15.2 °C 30.18 in /  1021.9 hPa NNE 1.7 mph /  2.7 km/h 3.5 mph /  5.6 km/h 85 % 0.00 in /  0 mm
02:44 64.0 °F /  17.8 °C 59.7 °F /  15.4 °C 30.18 in /  1021.9 hPa NE 0.6 mph /  1 km/h 2.3 mph /  3.7 km/h 86 % 0.00 in /  0 mm
02:49 63.9 °F /  17.7 °C 59.6 °F /  15.3 °C 30.18 in /  1021.9 hPa NNE 0.6 mph /  1 km/h 2.3 mph /  3.7 km/h 86 % 0.00 in /  0 mm
02:54 63.8 °F /  17.7 °C 59.9 °F /  15.5 °C 30.18 in /  1021.9 hPa ENE 0.3 mph /  0.5 km/h 4.6 mph /  7.4 km/h 87 % 0.00 in /  0 mm
02:59 63.8 °F /  17.7 °C 59.9 °F /  15.5 °C 30.18 in /  1021.9 hPa NNE 1.3 mph /  2.1 km/h 3.5 mph /  5.6 km/h 87 % 0.00 in /  0 mm
03:04 63.7 °F /  17.6 °C 59.8 °F /  15.4 °C 30.17 in /  1021.6 hPa NE 0.6 mph /  1 km/h 3.5 mph /  5.6 km/h 87 % 0.00 in /  0 mm
03:09 63.6 °F /  17.6 °C 59.7 °F /  15.4 °C 30.17 in /  1021.6 hPa NNE 1.9 mph /  3.1 km/h 3.5 mph /  5.6 km/h 87 % 0.00 in /  0 mm
03:15 63.6 °F /  17.6 °C 59.7 °F /  15.4 °C 30.17 in /  1021.6 hPa NNE 1.2 mph /  1.9 km/h 3.5 mph /  5.6 km/h 87 % 0.00 in /  0 mm
03:20 63.5 °F /  17.5 °C 59.9 °F /  15.5 °C 30.17 in /  1021.6 hPa NNE 1.5 mph /  2.4 km/h 3.5 mph /  5.6 km/h 88 % 0.00 in /  0 mm
03:25 63.5 °F /  17.5 °C 59.6 °F /  15.3 °C 30.17 in /  1021.6 hPa NNE 2.7 mph /  4.3 km/h 4.0 mph /  6.4 km/h 87 % 0.00 in /  0 mm
03:30 63.5 °F /  17.5 °C 59.6 °F /  15.3 °C 30.17 in /  1021.6 hPa NNE 1.6 mph /  2.6 km/h 3.5 mph /  5.6 km/h 87 % 0.00 in /  0 mm
03:35 63.5 °F /  17.5 °C 59.9 °F /  15.5 °C 30.17 in /  1021.6 hPa NE 4.1 mph /  6.6 km/h 6.9 mph /  11.1 km/h 88 % 0.00 in /  0 mm
03:40 63.5 °F /  17.5 °C 59.9 °F /  15.5 °C 30.17 in /  1021.6 hPa ENE 0.9 mph /  1.4 km/h 3.5 mph /  5.6 km/h 88 % 0.00 in /  0 mm
03:45 63.5 °F /  17.5 °C 59.9 °F /  15.5 °C 30.16 in /  1021.2 hPa NE 1.3 mph /  2.1 km/h 3.5 mph /  5.6 km/h 88 % 0.00 in /  0 mm
03:50 63.5 °F /  17.5 °C 59.9 °F /  15.5 °C 30.17 in /  1021.6 hPa North 2.0 mph /  3.2 km/h 3.5 mph /  5.6 km/h 88 % 0.00 in /  0 mm
03:55 63.5 °F /  17.5 °C 59.9 °F /  15.5 °C 30.17 in /  1021.6 hPa NNE 1.6 mph /  2.6 km/h 2.3 mph /  3.7 km/h 88 % 0.00 in /  0 mm
04:00 63.5 °F /  17.5 °C 59.9 °F /  15.5 °C 30.17 in /  1021.6 hPa NE 0.1 mph /  0.2 km/h 1.2 mph /  1.9 km/h 88 % 0.00 in /  0 mm
04:05 63.5 °F /  17.5 °C 59.9 °F /  15.5 °C 30.16 in /  1021.2 hPa ENE 0.9 mph /  1.4 km/h 3.5 mph /  5.6 km/h 88 % 0.00 in /  0 mm
04:10 63.5 °F /  17.5 °C 59.9 °F /  15.5 °C 30.16 in /  1021.2 hPa NE 1.8 mph /  2.9 km/h 4.0 mph /  6.4 km/h 88 % 0.00 in /  0 mm
04:15 63.4 °F /  17.4 °C 59.8 °F /  15.4 °C 30.16 in /  1021.2 hPa NNE 2.0 mph /  3.2 km/h 3.5 mph /  5.6 km/h 88 % 0.00 in /  0 mm
04:20 63.4 °F /  17.4 °C 59.8 °F /  15.4 °C 30.16 in /  1021.2 hPa NE 2.4 mph /  3.9 km/h 5.0 mph /  8 km/h 88 % 0.00 in /  0 mm
04:26 63.4 °F /  17.4 °C 59.8 °F /  15.4 °C 30.16 in /  1021.2 hPa NE 2.0 mph /  3.2 km/h 5.0 mph /  8 km/h 88 % 0.00 in /  0 mm
04:31 63.4 °F /  17.4 °C 59.8 °F /  15.4 °C 30.16 in /  1021.2 hPa NE 2.0 mph /  3.2 km/h 7.0 mph /  11.3 km/h 88 % 0.00 in /  0 mm
04:36 63.3 °F /  17.4 °C 59.4 °F /  15.2 °C 30.16 in /  1021.2 hPa NE 1.0 mph /  1.6 km/h 4.0 mph /  6.4 km/h 87 % 0.00 in /  0 mm
04:41 63.3 °F /  17.4 °C 59.7 °F /  15.4 °C 30.16 in /  1021.2 hPa NE 1.0 mph /  1.6 km/h 5.0 mph /  8 km/h 88 % 0.00 in /  0 mm
04:46 63.3 °F /  17.4 °C 59.4 °F /  15.2 °C 30.16 in /  1021.2 hPa NE 1.0 mph /  1.6 km/h 4.0 mph /  6.4 km/h 87 % 0.00 in /  0 mm
04:51 63.3 °F /  17.4 °C 59.4 °F /  15.2 °C 30.17 in /  1021.6 hPa NE 2.0 mph /  3.2 km/h 5.0 mph /  8 km/h 87 % 0.00 in /  0 mm
04:56 63.2 °F /  17.3 °C 59.3 °F /  15.2 °C 30.16 in /  1021.2 hPa NE 1.0 mph /  1.6 km/h 4.0 mph /  6.4 km/h 87 % 0.00 in /  0 mm
05:01 63.3 °F /  17.4 °C 59.4 °F /  15.2 °C 30.17 in /  1021.6 hPa NE 0.5 mph /  0.8 km/h 3.5 mph /  5.6 km/h 87 % 0.00 in /  0 mm
05:06 63.2 °F /  17.3 °C 59.3 °F /  15.2 °C 30.17 in /  1021.6 hPa NNE 0.4 mph /  0.6 km/h 3.5 mph /  5.6 km/h 87 % 0.00 in /  0 mm
05:11 63.2 °F /  17.3 °C 59.3 °F /  15.2 °C 30.17 in /  1021.6 hPa NNE 0.2 mph /  0.3 km/h 2.3 mph /  3.7 km/h 87 % 0.00 in /  0 mm
05:16 63.1 °F /  17.3 °C 59.2 °F /  15.1 °C 30.17 in /  1021.6 hPa Calm   1.2 mph /  1.9 km/h 87 % 0.00 in /  0 mm
05:21 63.1 °F /  17.3 °C 59.2 °F /  15.1 °C 30.17 in /  1021.6 hPa NNE 0.1 mph /  0.2 km/h 2.0 mph /  3.2 km/h 87 % 0.00 in /  0 mm
05:26 63.0 °F /  17.2 °C 59.1 °F /  15.1 °C 30.18 in /  1021.9 hPa Calm   1.2 mph /  1.9 km/h 87 % 0.00 in /  0 mm
05:27 63.0 °F /  17.2 °C 59.1 °F /  15.1 °C 30.18 in /  1021.9 hPa Calm   1.2 mph /  1.9 km/h 87 % 0.00 in /  0 mm
05:32 62.9 °F /  17.2 °C 59.0 °F /  15 °C 30.18 in /  1021.9 hPa Calm     87 % 0.00 in /  0 mm
05:37 62.9 °F /  17.2 °C 59.0 °F /  15 °C 30.18 in /  1021.9 hPa Calm     87 % 0.00 in /  0 mm
05:42 62.8 °F /  17.1 °C 58.9 °F /  14.9 °C 30.18 in /  1021.9 hPa Calm     87 % 0.00 in /  0 mm
05:47 62.7 °F /  17.1 °C 58.8 °F /  14.9 °C 30.19 in /  1022.2 hPa Calm     87 % 0.00 in /  0 mm
05:51 62.6 °F /  17 °C 58.7 °F /  14.8 °C 30.18 in /  1021.9 hPa NW 0.3 mph /  0.5 km/h 1.2 mph /  1.9 km/h 87 % 0.00 in /  0 mm
05:56 62.5 °F /  16.9 °C 58.9 °F /  14.9 °C 30.18 in /  1021.9 hPa NW 0.5 mph /  0.8 km/h 2.3 mph /  3.7 km/h 88 % 0.00 in /  0 mm
06:01 62.5 °F /  16.9 °C 58.9 °F /  14.9 °C 30.19 in /  1022.2 hPa NW 0.8 mph /  1.3 km/h 3.5 mph /  5.6 km/h 88 % 0.00 in /  0 mm
06:06 62.4 °F /  16.9 °C 59.1 °F /  15.1 °C 30.19 in /  1022.2 hPa Calm   3.5 mph /  5.6 km/h 89 % 0.00 in /  0 mm
06:11 62.4 °F /  16.9 °C 59.1 °F /  15.1 °C 30.19 in /  1022.2 hPa North 0.7 mph /  1.1 km/h 2.3 mph /  3.7 km/h 89 % 0.00 in /  0 mm
06:16 62.4 °F /  16.9 °C 59.4 °F /  15.2 °C 30.19 in /  1022.2 hPa North 2.3 mph /  3.7 km/h 5.0 mph /  8 km/h 90 % 0.00 in /  0 mm
06:21 62.4 °F /  16.9 °C 59.4 °F /  15.2 °C 30.19 in /  1022.2 hPa North 0.4 mph /  0.6 km/h 2.3 mph /  3.7 km/h 90 % 0.00 in /  0 mm
06:26 62.5 °F /  16.9 °C 59.8 °F /  15.4 °C 30.19 in /  1022.2 hPa Calm     91 % 0.00 in /  0 mm
06:31 62.6 °F /  17 °C 59.9 °F /  15.5 °C 30.20 in /  1022.6 hPa NNE 1.1 mph /  1.8 km/h 3.5 mph /  5.6 km/h 91 % 0.00 in /  0 mm
06:36 62.8 °F /  17.1 °C 60.1 °F /  15.6 °C 30.19 in /  1022.2 hPa NNW 1.3 mph /  2.1 km/h 3.0 mph /  4.8 km/h 91 % 0.00 in /  0 mm
06:41 63.1 °F /  17.3 °C 60.7 °F /  15.9 °C 30.20 in /  1022.6 hPa North 1.8 mph /  2.9 km/h 3.5 mph /  5.6 km/h 92 % 0.00 in /  0 mm
06:46 63.4 °F /  17.4 °C 60.7 °F /  15.9 °C 30.19 in /  1022.2 hPa North 1.2 mph /  1.9 km/h 2.3 mph /  3.7 km/h 91 % 0.00 in /  0 mm
06:51 63.7 °F /  17.6 °C 61.0 °F /  16.1 °C 30.19 in /  1022.2 hPa NNE 3.6 mph /  5.8 km/h 4.0 mph /  6.4 km/h 91 % 0.00 in /  0 mm
06:56 64.0 °F /  17.8 °C 61.0 °F /  16.1 °C 30.19 in /  1022.2 hPa NNW 1.6 mph /  2.6 km/h 3.5 mph /  5.6 km/h 90 % 0.00 in /  0 mm
06:59 64.1 °F /  17.8 °C 61.1 °F /  16.2 °C 30.19 in /  1022.2 hPa NNW 0.8 mph /  1.3 km/h 3.5 mph /  5.6 km/h 90 % 0.00 in /  0 mm
07:04 64.4 °F /  18 °C 61.4 °F /  16.3 °C 30.20 in /  1022.6 hPa North 1.7 mph /  2.7 km/h 3.5 mph /  5.6 km/h 90 % 0.00 in /  0 mm
07:09 64.8 °F /  18.2 °C 61.8 °F /  16.6 °C 30.20 in /  1022.6 hPa NNE 2.9 mph /  4.7 km/h 6.0 mph /  9.7 km/h 90 % 0.00 in /  0 mm
07:14 65.2 °F /  18.4 °C 61.9 °F /  16.6 °C 30.20 in /  1022.6 hPa NNE 2.1 mph /  3.4 km/h 3.5 mph /  5.6 km/h 89 % 0.00 in /  0 mm
07:20 65.7 °F /  18.7 °C 62.4 °F /  16.9 °C 30.20 in /  1022.6 hPa NE 2.3 mph /  3.7 km/h 3.5 mph /  5.6 km/h 89 % 0.00 in /  0 mm
07:25 66.1 °F /  18.9 °C 62.8 °F /  17.1 °C 30.20 in /  1022.6 hPa North 1.7 mph /  2.7 km/h 2.3 mph /  3.7 km/h 89 % 0.00 in /  0 mm
07:30 66.4 °F /  19.1 °C 62.4 °F /  16.9 °C 30.20 in /  1022.6 hPa NNE 3.2 mph /  5.1 km/h 5.8 mph /  9.3 km/h 87 % 0.00 in /  0 mm
07:35 66.6 °F /  19.2 °C 62.3 °F /  16.8 °C 30.20 in /  1022.6 hPa North 3.3 mph /  5.3 km/h 5.8 mph /  9.3 km/h 86 % 0.00 in /  0 mm
07:40 66.8 °F /  19.3 °C 62.1 °F /  16.7 °C 30.20 in /  1022.6 hPa NE 1.3 mph /  2.1 km/h 3.5 mph /  5.6 km/h 85 % 0.00 in /  0 mm
07:45 66.9 °F /  19.4 °C 62.6 °F /  17 °C 30.20 in /  1022.6 hPa North 1.1 mph /  1.8 km/h 3.5 mph /  5.6 km/h 86 % 0.00 in /  0 mm
07:50 67.1 °F /  19.5 °C 63.1 °F /  17.3 °C 30.20 in /  1022.6 hPa NNE 2.6 mph /  4.2 km/h 3.5 mph /  5.6 km/h 87 % 0.00 in /  0 mm
07:55 67.1 °F /  19.5 °C 62.8 °F /  17.1 °C 30.21 in /  1022.9 hPa NNW 1.0 mph /  1.6 km/h 2.3 mph /  3.7 km/h 86 % 0.00 in /  0 mm
08:00 67.1 °F /  19.5 °C 62.4 °F /  16.9 °C 30.21 in /  1022.9 hPa NE 1.4 mph /  2.3 km/h 3.5 mph /  5.6 km/h 85 % 0.00 in /  0 mm
08:05 67.2 °F /  19.6 °C 62.9 °F /  17.2 °C 30.21 in /  1022.9 hPa NE 1.7 mph /  2.7 km/h 2.3 mph /  3.7 km/h 86 % 0.00 in /  0 mm
08:10 67.1 °F /  19.5 °C 62.4 °F /  16.9 °C 30.21 in /  1022.9 hPa North 2.5 mph /  4 km/h 5.8 mph /  9.3 km/h 85 % 0.00 in /  0 mm
08:15 67.1 °F /  19.5 °C 62.1 °F /  16.7 °C 30.22 in /  1023.2 hPa NNE 1.1 mph /  1.8 km/h 3.5 mph /  5.6 km/h 84 % 0.00 in /  0 mm
08:20 67.1 °F /  19.5 °C 62.4 °F /  16.9 °C 30.22 in /  1023.2 hPa NE 0.5 mph /  0.8 km/h 2.3 mph /  3.7 km/h 85 % 0.00 in /  0 mm
08:25 67.1 °F /  19.5 °C 62.1 °F /  16.7 °C 30.22 in /  1023.2 hPa NNE 3.0 mph /  4.8 km/h 3.5 mph /  5.6 km/h 84 % 0.00 in /  0 mm
08:30 67.1 °F /  19.5 °C 61.8 °F /  16.6 °C 30.22 in /  1023.2 hPa NNE 2.8 mph /  4.5 km/h 4.6 mph /  7.4 km/h 83 % 0.00 in /  0 mm
08:35 67.2 °F /  19.6 °C 61.9 °F /  16.6 °C 30.22 in /  1023.2 hPa North 1.1 mph /  1.8 km/h 2.3 mph /  3.7 km/h 83 % 0.00 in /  0 mm
08:36 67.2 °F /  19.6 °C 61.9 °F /  16.6 °C 30.22 in /  1023.2 hPa NNE 1.0 mph /  1.6 km/h 3.0 mph /  4.8 km/h 83 % 0.00 in /  0 mm
08:41 67.2 °F /  19.6 °C 61.9 °F /  16.6 °C 30.22 in /  1023.2 hPa NNE 1.0 mph /  1.6 km/h 2.0 mph /  3.2 km/h 83 % 0.00 in /  0 mm
08:46 67.3 °F /  19.6 °C 62.0 °F /  16.7 °C 30.22 in /  1023.2 hPa NNE 2.0 mph /  3.2 km/h 5.0 mph /  8 km/h 83 % 0.00 in /  0 mm
08:51 67.2 °F /  19.6 °C 61.5 °F /  16.4 °C 30.22 in /  1023.2 hPa North 2.0 mph /  3.2 km/h 4.0 mph /  6.4 km/h 82 % 0.00 in /  0 mm
08:56 67.2 °F /  19.6 °C 61.9 °F /  16.6 °C 30.22 in /  1023.2 hPa North 1.0 mph /  1.6 km/h 3.0 mph /  4.8 km/h 83 % 0.00 in /  0 mm
09:01 67.2 °F /  19.6 °C 61.9 °F /  16.6 °C 30.22 in /  1023.2 hPa North 1.3 mph /  2.1 km/h 3.5 mph /  5.6 km/h 83 % 0.01 in /  0.25 mm
09:06 67.3 °F /  19.6 °C 62.0 °F /  16.7 °C 30.22 in /  1023.2 hPa NNE 0.2 mph /  0.3 km/h 3.5 mph /  5.6 km/h 83 % 0.01 in /  0.25 mm
09:11 67.4 °F /  19.7 °C 61.7 °F /  16.5 °C 30.22 in /  1023.2 hPa NNE 1.6 mph /  2.6 km/h 3.5 mph /  5.6 km/h 82 % 0.01 in /  0.25 mm
09:16 67.5 °F /  19.7 °C 61.5 °F /  16.4 °C 30.21 in /  1022.9 hPa North 2.3 mph /  3.7 km/h 4.6 mph /  7.4 km/h 81 % 0.01 in /  0.25 mm
09:21 67.5 °F /  19.7 °C 61.5 °F /  16.4 °C 30.21 in /  1022.9 hPa NNE 1.0 mph /  1.6 km/h 4.6 mph /  7.4 km/h 81 % 0.01 in /  0.25 mm
09:26 67.5 °F /  19.7 °C 61.1 °F /  16.2 °C 30.22 in /  1023.2 hPa North 0.7 mph /  1.1 km/h 4.0 mph /  6.4 km/h 80 % 0.01 in /  0.25 mm
09:31 67.5 °F /  19.7 °C 61.1 °F /  16.2 °C 30.22 in /  1023.2 hPa NNE 0.7 mph /  1.1 km/h 2.3 mph /  3.7 km/h 80 % 0.01 in /  0.25 mm
09:36 67.5 °F /  19.7 °C 61.5 °F /  16.4 °C 30.22 in /  1023.2 hPa NE 0.4 mph /  0.6 km/h 2.3 mph /  3.7 km/h 81 % 0.01 in /  0.25 mm
09:41 67.5 °F /  19.7 °C 61.5 °F /  16.4 °C 30.22 in /  1023.2 hPa North 2.8 mph /  4.5 km/h 4.6 mph /  7.4 km/h 81 % 0.00 in /  0 mm
09:46 67.7 °F /  19.8 °C 61.7 °F /  16.5 °C 30.22 in /  1023.2 hPa North 1.3 mph /  2.1 km/h 3.5 mph /  5.6 km/h 81 % 0.00 in /  0 mm
09:51 67.9 °F /  19.9 °C 61.9 °F /  16.6 °C 30.21 in /  1022.9 hPa ENE 1.8 mph /  2.9 km/h 4.6 mph /  7.4 km/h 81 % 0.00 in /  0 mm
09:56 68.2 °F /  20.1 °C 61.8 °F /  16.6 °C 30.21 in /  1022.9 hPa North 1.4 mph /  2.3 km/h 3.5 mph /  5.6 km/h 80 % 0.00 in /  0 mm
10:01 68.5 °F /  20.3 °C 61.7 °F /  16.5 °C 30.21 in /  1022.9 hPa NNE 1.5 mph /  2.4 km/h 4.6 mph /  7.4 km/h 79 % 0.00 in /  0 mm
10:06 69.1 °F /  20.6 °C 60.5 °F /  15.8 °C 30.21 in /  1022.9 hPa North 2.2 mph /  3.5 km/h 3.5 mph /  5.6 km/h 74 % 0.00 in /  0 mm
10:11 69.8 °F /  21 °C 60.0 °F /  15.6 °C 30.21 in /  1022.9 hPa North 0.4 mph /  0.6 km/h 2.3 mph /  3.7 km/h 71 % 0.00 in /  0 mm
10:16 70.6 °F /  21.4 °C 59.9 °F /  15.5 °C 30.21 in /  1022.9 hPa North 2.6 mph /  4.2 km/h 3.5 mph /  5.6 km/h 69 % 0.00 in /  0 mm
10:21 71.6 °F /  22 °C 60.5 °F /  15.8 °C 30.20 in /  1022.6 hPa Calm   1.2 mph /  1.9 km/h 68 % 0.00 in /  0 mm
10:26 72.5 °F /  22.5 °C 60.9 °F /  16.1 °C 30.20 in /  1022.6 hPa NNE 1.5 mph /  2.4 km/h 3.5 mph /  5.6 km/h 67 % 0.00 in /  0 mm
10:31 73.2 °F /  22.9 °C 59.8 °F /  15.4 °C 30.21 in /  1022.9 hPa NNE 2.8 mph /  4.5 km/h 3.5 mph /  5.6 km/h 63 % 0.00 in /  0 mm
10:36 74.0 °F /  23.3 °C 60.6 °F /  15.9 °C 30.20 in /  1022.6 hPa NE 1.0 mph /  1.6 km/h 3.5 mph /  5.6 km/h 63 % 0.00 in /  0 mm
10:41 74.9 °F /  23.8 °C 61.9 °F /  16.6 °C 30.20 in /  1022.6 hPa Calm   2.3 mph /  3.7 km/h 64 % 0.00 in /  0 mm
10:46 75.9 °F /  24.4 °C 61.9 °F /  16.6 °C 30.20 in /  1022.6 hPa North 2.7 mph /  4.3 km/h 4.0 mph /  6.4 km/h 62 % 0.00 in /  0 mm
10:51 76.5 °F /  24.7 °C 63.0 °F /  17.2 °C 30.20 in /  1022.6 hPa NNE 0.1 mph /  0.2 km/h 2.3 mph /  3.7 km/h 63 % 0.00 in /  0 mm
10:56 77.4 °F /  25.2 °C 63.4 °F /  17.4 °C 30.20 in /  1022.6 hPa NNW 0.1 mph /  0.2 km/h 1.2 mph /  1.9 km/h 62 % 0.00 in /  0 mm
11:01 77.9 °F /  25.5 °C 60.4 °F /  15.8 °C 30.20 in /  1022.6 hPa North 0.4 mph /  0.6 km/h 3.5 mph /  5.6 km/h 55 % 0.00 in /  0 mm
11:07 78.2 °F /  25.7 °C 60.7 °F /  15.9 °C 30.20 in /  1022.6 hPa NE 0.5 mph /  0.8 km/h 4.6 mph /  7.4 km/h 55 % 0.00 in /  0 mm
11:12 78.7 °F /  25.9 °C 61.7 °F /  16.5 °C 30.19 in /  1022.2 hPa Calm   1.2 mph /  1.9 km/h 56 % 0.00 in /  0 mm
11:17 78.9 °F /  26.1 °C 62.4 °F /  16.9 °C 30.19 in /  1022.2 hPa NE 1.0 mph /  1.6 km/h 2.3 mph /  3.7 km/h 57 % 0.00 in /  0 mm
11:22 79.2 °F /  26.2 °C 61.1 °F /  16.2 °C 30.19 in /  1022.2 hPa North 1.4 mph /  2.3 km/h 3.5 mph /  5.6 km/h 54 % 0.00 in /  0 mm
11:27 79.6 °F /  26.4 °C 63.0 °F /  17.2 °C 30.19 in /  1022.2 hPa NE 2.4 mph /  3.9 km/h 3.5 mph /  5.6 km/h 57 % 0.00 in /  0 mm
11:32 79.7 °F /  26.5 °C 61.1 °F /  16.2 °C 30.19 in /  1022.2 hPa NNE 2.6 mph /  4.2 km/h 3.5 mph /  5.6 km/h 53 % 0.00 in /  0 mm
11:34 79.7 °F /  26.5 °C 61.1 °F /  16.2 °C 30.19 in /  1022.2 hPa ENE 2.4 mph /  3.9 km/h 4.6 mph /  7.4 km/h 53 % 0.00 in /  0 mm
11:39 79.6 °F /  26.4 °C 61.5 °F /  16.4 °C 30.20 in /  1022.6 hPa ENE 0.8 mph /  1.3 km/h 2.3 mph /  3.7 km/h 54 % 0.00 in /  0 mm
11:44 79.7 °F /  26.5 °C 61.1 °F /  16.2 °C 30.19 in /  1022.2 hPa NE 3.0 mph /  4.8 km/h 5.8 mph /  9.3 km/h 53 % 0.00 in /  0 mm
11:49 79.9 °F /  26.6 °C 61.2 °F /  16.2 °C 30.20 in /  1022.6 hPa NNE 2.0 mph /  3.2 km/h 3.5 mph /  5.6 km/h 53 % 0.00 in /  0 mm
11:50 79.9 °F /  26.6 °C 62.3 °F /  16.8 °C 30.20 in /  1022.6 hPa NNE 1.0 mph /  1.6 km/h 3.5 mph /  5.6 km/h 55 % 0.00 in /  0 mm
11:55 79.7 °F /  26.5 °C 60.5 °F /  15.8 °C 30.20 in /  1022.6 hPa NNE 3.1 mph /  5 km/h 6.9 mph /  11.1 km/h 52 % 0.00 in /  0 mm
12:00 79.8 °F /  26.6 °C 61.7 °F /  16.5 °C 30.19 in /  1022.2 hPa ENE 1.3 mph /  2.1 km/h 3.5 mph /  5.6 km/h 54 % 0.00 in /  0 mm
12:05 79.8 °F /  26.6 °C 61.7 °F /  16.5 °C 30.19 in /  1022.2 hPa North 1.6 mph /  2.6 km/h 3.5 mph /  5.6 km/h 54 % 0.00 in /  0 mm
12:10 79.4 °F /  26.3 °C 60.8 °F /  16 °C 30.19 in /  1022.2 hPa NE 1.4 mph /  2.3 km/h 3.5 mph /  5.6 km/h 53 % 0.00 in /  0 mm
12:15 79.4 °F /  26.3 °C 60.8 °F /  16 °C 30.18 in /  1021.9 hPa NE 0.9 mph /  1.4 km/h 3.5 mph /  5.6 km/h 53 % 0.00 in /  0 mm
12:20 79.6 °F /  26.4 °C 61.5 °F /  16.4 °C 30.18 in /  1021.9 hPa NE 1.2 mph /  1.9 km/h 2.3 mph /  3.7 km/h 54 % 0.00 in /  0 mm
12:25 79.9 °F /  26.6 °C 60.7 °F /  15.9 °C 30.19 in /  1022.2 hPa ENE 3.0 mph /  4.8 km/h 5.8 mph /  9.3 km/h 52 % 0.00 in /  0 mm
12:30 79.8 °F /  26.6 °C 61.1 °F /  16.2 °C 30.18 in /  1021.9 hPa NNW 5.0 mph /  8 km/h 6.9 mph /  11.1 km/h 53 % 0.00 in /  0 mm
12:35 79.9 °F /  26.6 °C 61.2 °F /  16.2 °C 30.18 in /  1021.9 hPa NNE 2.3 mph /  3.7 km/h 3.5 mph /  5.6 km/h 53 % 0.00 in /  0 mm
12:40 80.1 °F /  26.7 °C 63.5 °F /  17.5 °C 30.18 in /  1021.9 hPa NE 2.9 mph /  4.7 km/h 5.8 mph /  9.3 km/h 57 % 0.00 in /  0 mm
12:45 80.1 °F /  26.7 °C 62.0 °F /  16.7 °C 30.18 in /  1021.9 hPa NNE 0.7 mph /  1.1 km/h 3.5 mph /  5.6 km/h 54 % 0.00 in /  0 mm
12:50 80.2 °F /  26.8 °C 62.0 °F /  16.7 °C 30.18 in /  1021.9 hPa North 3.4 mph /  5.5 km/h 5.0 mph /  8 km/h 54 % 0.00 in /  0 mm
12:55 79.8 °F /  26.6 °C 61.7 °F /  16.5 °C 30.18 in /  1021.9 hPa NE 2.3 mph /  3.7 km/h 4.6 mph /  7.4 km/h 54 % 0.00 in /  0 mm
13:01 79.9 °F /  26.6 °C 61.8 °F /  16.6 °C 30.18 in /  1021.9 hPa North 3.0 mph /  4.8 km/h 7.0 mph /  11.3 km/h 54 % 0.00 in /  0 mm
13:06 79.9 °F /  26.6 °C 60.7 °F /  15.9 °C 30.18 in /  1021.9 hPa NE 2.6 mph /  4.2 km/h 5.8 mph /  9.3 km/h 52 % 0.00 in /  0 mm
13:11 79.7 °F /  26.5 °C 63.1 °F /  17.3 °C 30.18 in /  1021.9 hPa NE 2.0 mph /  3.2 km/h 4.6 mph /  7.4 km/h 57 % 0.00 in /  0 mm
13:16 79.8 °F /  26.6 °C 60.6 °F /  15.9 °C 30.17 in /  1021.6 hPa North 5.2 mph /  8.4 km/h 6.9 mph /  11.1 km/h 52 % 0.00 in /  0 mm
13:21 79.9 °F /  26.6 °C 61.8 °F /  16.6 °C 30.17 in /  1021.6 hPa ENE 1.6 mph /  2.6 km/h 6.9 mph /  11.1 km/h 54 % 0.00 in /  0 mm
13:26 80.1 °F /  26.7 °C 62.5 °F /  16.9 °C 30.17 in /  1021.6 hPa NNE 2.9 mph /  4.7 km/h 6.9 mph /  11.1 km/h 55 % 0.00 in /  0 mm
13:31 80.3 °F /  26.8 °C 61.6 °F /  16.4 °C 30.17 in /  1021.6 hPa ENE 2.5 mph /  4 km/h 4.6 mph /  7.4 km/h 53 % 0.00 in /  0 mm
13:36 80.2 °F /  26.8 °C 62.0 °F /  16.7 °C 30.17 in /  1021.6 hPa NNE 3.9 mph /  6.3 km/h 6.9 mph /  11.1 km/h 54 % 0.00 in /  0 mm
13:41 80.3 °F /  26.8 °C 62.1 °F /  16.7 °C 30.17 in /  1021.6 hPa NNE 2.9 mph /  4.7 km/h 4.6 mph /  7.4 km/h 54 % 0.00 in /  0 mm
13:46 80.4 °F /  26.9 °C 61.2 °F /  16.2 °C 30.17 in /  1021.6 hPa ENE 1.1 mph /  1.8 km/h 3.5 mph /  5.6 km/h 52 % 0.00 in /  0 mm
13:51 80.5 °F /  26.9 °C 63.4 °F /  17.4 °C 30.17 in /  1021.6 hPa ENE 2.1 mph /  3.4 km/h 3.5 mph /  5.6 km/h 56 % 0.00 in /  0 mm
13:56 80.6 °F /  27 °C 62.9 °F /  17.2 °C 30.16 in /  1021.2 hPa NE 5.3 mph /  8.5 km/h 6.9 mph /  11.1 km/h 55 % 0.00 in /  0 mm
14:01 80.7 °F /  27.1 °C 62.5 °F /  16.9 °C 30.16 in /  1021.2 hPa ENE 2.0 mph /  3.2 km/h 3.5 mph /  5.6 km/h 54 % 0.00 in /  0 mm
14:06 80.7 °F /  27.1 °C 63.0 °F /  17.2 °C 30.16 in /  1021.2 hPa NNE 1.7 mph /  2.7 km/h 4.6 mph /  7.4 km/h 55 % 0.00 in /  0 mm
14:11 80.8 °F /  27.1 °C 61.0 °F /  16.1 °C 30.16 in /  1021.2 hPa NE 3.2 mph /  5.1 km/h 3.5 mph /  5.6 km/h 51 % 0.00 in /  0 mm
14:16 80.8 °F /  27.1 °C 61.0 °F /  16.1 °C 30.16 in /  1021.2 hPa NE 1.0 mph /  1.6 km/h 3.5 mph /  5.6 km/h 51 % 0.00 in /  0 mm
14:22 80.7 °F /  27.1 °C 62.5 °F /  16.9 °C 30.16 in /  1021.2 hPa NNE 1.7 mph /  2.7 km/h 3.5 mph /  5.6 km/h 54 % 0.00 in /  0 mm
14:27 80.6 °F /  27 °C 62.4 °F /  16.9 °C 30.16 in /  1021.2 hPa North 2.8 mph /  4.5 km/h 6.9 mph /  11.1 km/h 54 % 0.00 in /  0 mm
14:32 80.4 °F /  26.9 °C 62.2 °F /  16.8 °C 30.15 in /  1020.9 hPa NE 0.3 mph /  0.5 km/h 1.2 mph /  1.9 km/h 54 % 0.00 in /  0 mm
14:37 80.3 °F /  26.8 °C 63.2 °F /  17.3 °C 30.15 in /  1020.9 hPa NE 1.9 mph /  3.1 km/h 3.5 mph /  5.6 km/h 56 % 0.00 in /  0 mm
14:41 79.9 °F /  26.6 °C 60.7 °F /  15.9 °C 30.15 in /  1020.9 hPa NE 2.9 mph /  4.7 km/h 3.5 mph /  5.6 km/h 52 % 0.00 in /  0 mm
14:46 79.7 °F /  26.5 °C 62.1 °F /  16.7 °C 30.15 in /  1020.9 hPa East 0.8 mph /  1.3 km/h 3.5 mph /  5.6 km/h 55 % 0.00 in /  0 mm
14:51 79.5 °F /  26.4 °C 60.9 °F /  16.1 °C 30.14 in /  1020.5 hPa ENE 1.1 mph /  1.8 km/h 4.6 mph /  7.4 km/h 53 % 0.00 in /  0 mm
14:56 79.4 °F /  26.3 °C 60.8 °F /  16 °C 30.15 in /  1020.9 hPa ENE 1.1 mph /  1.8 km/h 3.5 mph /  5.6 km/h 53 % 0.00 in /  0 mm
15:01 79.3 °F /  26.3 °C 62.2 °F /  16.8 °C 30.14 in /  1020.5 hPa North 1.5 mph /  2.4 km/h 4.6 mph /  7.4 km/h 56 % 0.00 in /  0 mm
15:06 79.5 °F /  26.4 °C 61.9 °F /  16.6 °C 30.14 in /  1020.5 hPa NNE 1.9 mph /  3.1 km/h 3.5 mph /  5.6 km/h 55 % 0.00 in /  0 mm
15:12 79.5 °F /  26.4 °C 60.9 °F /  16.1 °C 30.14 in /  1020.5 hPa NNE 1.4 mph /  2.3 km/h 3.5 mph /  5.6 km/h 53 % 0.00 in /  0 mm
15:17 79.5 °F /  26.4 °C 61.9 °F /  16.6 °C 30.14 in /  1020.5 hPa NNE 0.6 mph /  1 km/h 3.5 mph /  5.6 km/h 55 % 0.00 in /  0 mm
15:22 79.3 °F /  26.3 °C 60.7 °F /  15.9 °C 30.14 in /  1020.5 hPa ENE 0.9 mph /  1.4 km/h 3.5 mph /  5.6 km/h 53 % 0.00 in /  0 mm
15:27 79.3 °F /  26.3 °C 61.2 °F /  16.2 °C 30.14 in /  1020.5 hPa ENE 2.5 mph /  4 km/h 4.0 mph /  6.4 km/h 54 % 0.00 in /  0 mm
15:32 79.1 °F /  26.2 °C 62.1 °F /  16.7 °C 30.14 in /  1020.5 hPa North 2.9 mph /  4.7 km/h 3.5 mph /  5.6 km/h 56 % 0.00 in /  0 mm
15:37 79.4 °F /  26.3 °C 62.8 °F /  17.1 °C 30.14 in /  1020.5 hPa NNE 1.8 mph /  2.9 km/h 3.0 mph /  4.8 km/h 57 % 0.00 in /  0 mm
15:42 79.4 °F /  26.3 °C 61.3 °F /  16.3 °C 30.14 in /  1020.5 hPa NE 1.8 mph /  2.9 km/h 3.5 mph /  5.6 km/h 54 % 0.00 in /  0 mm
15:47 79.2 °F /  26.2 °C 60.6 °F /  15.9 °C 30.14 in /  1020.5 hPa East 2.6 mph /  4.2 km/h 4.6 mph /  7.4 km/h 53 % 0.00 in /  0 mm
15:52 79.1 °F /  26.2 °C 62.1 °F /  16.7 °C 30.13 in /  1020.2 hPa NNE 2.1 mph /  3.4 km/h 3.5 mph /  5.6 km/h 56 % 0.00 in /  0 mm
15:57 79.1 °F /  26.2 °C 61.0 °F /  16.1 °C 30.13 in /  1020.2 hPa NE 1.2 mph /  1.9 km/h 3.5 mph /  5.6 km/h 54 % 0.00 in /  0 mm
16:02 79.1 °F /  26.2 °C 62.6 °F /  17 °C 30.13 in /  1020.2 hPa ENE 1.0 mph /  1.6 km/h 2.3 mph /  3.7 km/h 57 % 0.00 in /  0 mm
16:07 78.8 °F /  26 °C 61.3 °F /  16.3 °C 30.13 in /  1020.2 hPa ENE 0.7 mph /  1.1 km/h 3.5 mph /  5.6 km/h 55 % 0.00 in /  0 mm
16:12 78.8 °F /  26 °C 62.8 °F /  17.1 °C 30.12 in /  1019.9 hPa Calm   1.2 mph /  1.9 km/h 58 % 0.00 in /  0 mm
16:17 78.9 °F /  26.1 °C 62.9 °F /  17.2 °C 30.13 in /  1020.2 hPa NE 0.5 mph /  0.8 km/h 2.0 mph /  3.2 km/h 58 % 0.00 in /  0 mm
16:22 78.9 °F /  26.1 °C 62.9 °F /  17.2 °C 30.12 in /  1019.9 hPa NE 0.7 mph /  1.1 km/h 2.3 mph /  3.7 km/h 58 % 0.00 in /  0 mm
16:27 79.0 °F /  26.1 °C 63.0 °F /  17.2 °C 30.12 in /  1019.9 hPa NE 1.2 mph /  1.9 km/h 2.3 mph /  3.7 km/h 58 % 0.00 in /  0 mm
16:32 78.8 °F /  26 °C 63.3 °F /  17.4 °C 30.12 in /  1019.9 hPa Calm   2.0 mph /  3.2 km/h 59 % 0.00 in /  0 mm
16:37 78.7 °F /  25.9 °C 63.2 °F /  17.3 °C 30.12 in /  1019.9 hPa Calm   1.2 mph /  1.9 km/h 59 % 0.00 in /  0 mm
16:42 78.5 °F /  25.8 °C 62.0 °F /  16.7 °C 30.12 in /  1019.9 hPa NNE 2.8 mph /  4.5 km/h 3.5 mph /  5.6 km/h 57 % 0.00 in /  0 mm
16:47 78.0 °F /  25.6 °C 62.5 °F /  16.9 °C 30.13 in /  1020.2 hPa NE 0.2 mph /  0.3 km/h 1.2 mph /  1.9 km/h 59 % 0.00 in /  0 mm
16:52 77.5 °F /  25.3 °C 62.0 °F /  16.7 °C 30.12 in /  1019.9 hPa NE 0.1 mph /  0.2 km/h 1.2 mph /  1.9 km/h 59 % 0.00 in /  0 mm
16:57 77.1 °F /  25.1 °C 62.6 °F /  17 °C 30.12 in /  1019.9 hPa ENE 0.7 mph /  1.1 km/h 2.3 mph /  3.7 km/h 61 % 0.00 in /  0 mm
17:02 76.8 °F /  24.9 °C 62.8 °F /  17.1 °C 30.12 in /  1019.9 hPa NE 0.5 mph /  0.8 km/h 4.6 mph /  7.4 km/h 62 % 0.00 in /  0 mm
17:07 76.6 °F /  24.8 °C 62.1 °F /  16.7 °C 30.12 in /  1019.9 hPa NE 2.7 mph /  4.3 km/h 3.5 mph /  5.6 km/h 61 % 0.00 in /  0 mm
17:12 76.5 °F /  24.7 °C 62.0 °F /  16.7 °C 30.12 in /  1019.9 hPa Calm   1.2 mph /  1.9 km/h 61 % 0.00 in /  0 mm
17:17 76.2 °F /  24.6 °C 62.2 °F /  16.8 °C 30.12 in /  1019.9 hPa NNE 0.9 mph /  1.4 km/h 2.3 mph /  3.7 km/h 62 % 0.00 in /  0 mm
17:22 76.0 °F /  24.4 °C 62.9 °F /  17.2 °C 30.12 in /  1019.9 hPa NNE 0.5 mph /  0.8 km/h 2.3 mph /  3.7 km/h 64 % 0.00 in /  0 mm
17:28 75.9 °F /  24.4 °C 63.3 °F /  17.4 °C 30.11 in /  1019.5 hPa Calm   1.2 mph /  1.9 km/h 65 % 0.00 in /  0 mm
17:33 75.8 °F /  24.3 °C 64.1 °F /  17.8 °C 30.12 in /  1019.9 hPa Calm     67 % 0.00 in /  0 mm
17:38 75.7 °F /  24.3 °C 62.2 °F /  16.8 °C 30.12 in /  1019.9 hPa SE 1.3 mph /  2.1 km/h 3.5 mph /  5.6 km/h 63 % 0.00 in /  0 mm
17:43 75.7 °F /  24.3 °C 61.3 °F /  16.3 °C 30.11 in /  1019.5 hPa SE 1.2 mph /  1.9 km/h 4.6 mph /  7.4 km/h 61 % 0.00 in /  0 mm
17:48 75.6 °F /  24.2 °C 60.7 °F /  15.9 °C 30.11 in /  1019.5 hPa Calm   3.5 mph /  5.6 km/h 60 % 0.00 in /  0 mm
17:53 75.5 °F /  24.2 °C 61.1 °F /  16.2 °C 30.12 in /  1019.9 hPa WSW 2.0 mph /  3.2 km/h 6.9 mph /  11.1 km/h 61 % 0.00 in /  0 mm
17:58 75.5 °F /  24.2 °C 62.0 °F /  16.7 °C 30.12 in /  1019.9 hPa WSW 0.1 mph /  0.2 km/h 1.2 mph /  1.9 km/h 63 % 0.00 in /  0 mm
18:03 75.5 °F /  24.2 °C 61.6 °F /  16.4 °C 30.12 in /  1019.9 hPa West 1.2 mph /  1.9 km/h 3.5 mph /  5.6 km/h 62 % 0.00 in /  0 mm
18:08 75.4 °F /  24.1 °C 61.5 °F /  16.4 °C 30.12 in /  1019.9 hPa West 0.4 mph /  0.6 km/h 2.3 mph /  3.7 km/h 62 % 0.00 in /  0 mm
18:13 75.3 °F /  24.1 °C 60.5 °F /  15.8 °C 30.12 in /  1019.9 hPa Calm   1.0 mph /  1.6 km/h 60 % 0.00 in /  0 mm
18:18 75.2 °F /  24 °C 60.4 °F /  15.8 °C 30.11 in /  1019.5 hPa West 0.3 mph /  0.5 km/h 1.2 mph /  1.9 km/h 60 % 0.00 in /  0 mm
18:23 75.1 °F /  23.9 °C 60.7 °F /  15.9 °C 30.11 in /  1019.5 hPa SE 1.3 mph /  2.1 km/h 4.0 mph /  6.4 km/h 61 % 0.00 in /  0 mm
18:28 74.9 °F /  23.8 °C 59.1 °F /  15.1 °C 30.11 in /  1019.5 hPa SE 2.0 mph /  3.2 km/h 9.2 mph /  14.8 km/h 58 % 0.00 in /  0 mm
18:33 74.6 °F /  23.7 °C 58.8 °F /  14.9 °C 30.11 in /  1019.5 hPa SE 4.6 mph /  7.4 km/h 7.0 mph /  11.3 km/h 58 % 0.00 in /  0 mm
18:38 74.0 °F /  23.3 °C 58.3 °F /  14.6 °C 30.11 in /  1019.5 hPa SE 5.8 mph /  9.3 km/h 9.2 mph /  14.8 km/h 58 % 0.00 in /  0 mm
18:43 73.7 °F /  23.2 °C 59.4 °F /  15.2 °C 30.11 in /  1019.5 hPa SE 1.8 mph /  2.9 km/h 4.6 mph /  7.4 km/h 61 % 0.00 in /  0 mm
18:48 73.4 °F /  23 °C 59.1 °F /  15.1 °C 30.11 in /  1019.5 hPa SSE 2.7 mph /  4.3 km/h 6.9 mph /  11.1 km/h 61 % 0.00 in /  0 mm
18:53 73.1 °F /  22.8 °C 58.8 °F /  14.9 °C 30.11 in /  1019.5 hPa SE 3.4 mph /  5.5 km/h 4.6 mph /  7.4 km/h 61 % 0.00 in /  0 mm
18:58 72.7 °F /  22.6 °C 58.5 °F /  14.7 °C 30.10 in /  1019.2 hPa SE 0.7 mph /  1.1 km/h 3.5 mph /  5.6 km/h 61 % 0.00 in /  0 mm
19:03 72.4 °F /  22.4 °C 58.2 °F /  14.6 °C 30.10 in /  1019.2 hPa SSE 3.3 mph /  5.3 km/h 6.9 mph /  11.1 km/h 61 % 0.00 in /  0 mm
19:08 72.1 °F /  22.3 °C 58.8 °F /  14.9 °C 30.10 in /  1019.2 hPa SE 2.3 mph /  3.7 km/h 4.6 mph /  7.4 km/h 63 % 0.00 in /  0 mm
19:13 71.9 °F /  22.2 °C 59.1 °F /  15.1 °C 30.10 in /  1019.2 hPa SSE 1.2 mph /  1.9 km/h 3.0 mph /  4.8 km/h 64 % 0.00 in /  0 mm
19:18 71.7 °F /  22.1 °C 58.9 °F /  14.9 °C 30.10 in /  1019.2 hPa SE 1.0 mph /  1.6 km/h 2.0 mph /  3.2 km/h 64 % 0.00 in /  0 mm
19:23 71.5 °F /  21.9 °C 58.7 °F /  14.8 °C 30.10 in /  1019.2 hPa Calm   1.2 mph /  1.9 km/h 64 % 0.00 in /  0 mm
19:28 71.3 °F /  21.8 °C 58.9 °F /  14.9 °C 30.10 in /  1019.2 hPa SE 0.1 mph /  0.2 km/h 2.3 mph /  3.7 km/h 65 % 0.00 in /  0 mm
19:33 71.2 °F /  21.8 °C 58.8 °F /  14.9 °C 30.10 in /  1019.2 hPa SE 0.3 mph /  0.5 km/h 1.2 mph /  1.9 km/h 65 % 0.00 in /  0 mm
19:38 71.1 °F /  21.7 °C 58.7 °F /  14.8 °C 30.10 in /  1019.2 hPa SE 0.2 mph /  0.3 km/h 1.0 mph /  1.6 km/h 65 % 0.00 in /  0 mm
19:43 71.0 °F /  21.7 °C 59.1 °F /  15.1 °C 30.10 in /  1019.2 hPa SSE 0.3 mph /  0.5 km/h 1.2 mph /  1.9 km/h 66 % 0.00 in /  0 mm
19:46 70.9 °F /  21.6 °C 59.0 °F /  15 °C 30.10 in /  1019.2 hPa SE 0.2 mph /  0.3 km/h 4.6 mph /  7.4 km/h 66 % 0.00 in /  0 mm
19:51 70.8 °F /  21.6 °C 58.9 °F /  14.9 °C 30.10 in /  1019.2 hPa Calm     66 % 0.00 in /  0 mm
19:56 70.7 °F /  21.5 °C 59.2 °F /  15.1 °C 30.11 in /  1019.5 hPa Calm     67 % 0.00 in /  0 mm
20:01 70.6 °F /  21.4 °C 59.1 °F /  15.1 °C 30.10 in /  1019.2 hPa SSE 0.2 mph /  0.3 km/h 3.5 mph /  5.6 km/h 67 % 0.00 in /  0 mm
20:06 70.4 °F /  21.3 °C 58.9 °F /  14.9 °C 30.10 in /  1019.2 hPa Calm   1.2 mph /  1.9 km/h 67 % 0.00 in /  0 mm
20:11 70.3 °F /  21.3 °C 58.8 °F /  14.9 °C 30.11 in /  1019.5 hPa Calm   1.2 mph /  1.9 km/h 67 % 0.00 in /  0 mm
20:16 70.2 °F /  21.2 °C 59.1 °F /  15.1 °C 30.11 in /  1019.5 hPa SSE 0.2 mph /  0.3 km/h 1.2 mph /  1.9 km/h 68 % 0.00 in /  0 mm
20:21 70.0 °F /  21.1 °C 59.0 °F /  15 °C 30.11 in /  1019.5 hPa SSE 0.1 mph /  0.2 km/h 1.2 mph /  1.9 km/h 68 % 0.00 in /  0 mm
20:26 69.9 °F /  21.1 °C 58.9 °F /  14.9 °C 30.10 in /  1019.2 hPa Calm     68 % 0.00 in /  0 mm
20:31 69.7 °F /  20.9 °C 59.1 °F /  15.1 °C 30.10 in /  1019.2 hPa Calm     69 % 0.00 in /  0 mm
20:36 69.5 °F /  20.8 °C 59.3 °F /  15.2 °C 30.10 in /  1019.2 hPa Calm     70 % 0.00 in /  0 mm
20:41 69.3 °F /  20.7 °C 59.1 °F /  15.1 °C 30.10 in /  1019.2 hPa Calm     70 % 0.00 in /  0 mm
20:46 69.1 °F /  20.6 °C 58.9 °F /  14.9 °C 30.10 in /  1019.2 hPa Calm     70 % 0.00 in /  0 mm
20:51 68.8 °F /  20.4 °C 59.0 °F /  15 °C 30.10 in /  1019.2 hPa Calm     71 % 0.00 in /  0 mm
20:56 68.6 °F /  20.3 °C 59.2 °F /  15.1 °C 30.11 in /  1019.5 hPa Calm     72 % 0.00 in /  0 mm
21:01 68.5 °F /  20.3 °C 59.1 °F /  15.1 °C 30.10 in /  1019.2 hPa Calm     72 % 0.00 in /  0 mm
21:06 68.2 °F /  20.1 °C 59.2 °F /  15.1 °C 30.10 in /  1019.2 hPa Calm     73 % 0.00 in /  0 mm
21:12 68.0 °F /  20 °C 59.4 °F /  15.2 °C 30.10 in /  1019.2 hPa Calm     74 % 0.00 in /  0 mm
21:17 67.7 °F /  19.8 °C 59.1 °F /  15.1 °C 30.09 in /  1018.8 hPa Calm   3.5 mph /  5.6 km/h 74 % 0.00 in /  0 mm
21:22 67.5 °F /  19.7 °C 58.9 °F /  14.9 °C 30.09 in /  1018.8 hPa Calm   1.2 mph /  1.9 km/h 74 % 0.00 in /  0 mm
21:27 67.4 °F /  19.7 °C 59.2 °F /  15.1 °C 30.10 in /  1019.2 hPa Calm     75 % 0.00 in /  0 mm
21:32 67.3 °F /  19.6 °C 59.1 °F /  15.1 °C 30.10 in /  1019.2 hPa Calm   1.2 mph /  1.9 km/h 75 % 0.00 in /  0 mm
21:37 67.1 °F /  19.5 °C 58.9 °F /  14.9 °C 30.10 in /  1019.2 hPa Calm     75 % 0.00 in /  0 mm
21:42 66.9 °F /  19.4 °C 59.1 °F /  15.1 °C 30.10 in /  1019.2 hPa Calm   1.2 mph /  1.9 km/h 76 % 0.00 in /  0 mm
21:47 66.8 °F /  19.3 °C 59.0 °F /  15 °C 30.10 in /  1019.2 hPa Calm     76 % 0.00 in /  0 mm
21:52 66.7 °F /  19.3 °C 59.3 °F /  15.2 °C 30.10 in /  1019.2 hPa Calm   1.0 mph /  1.6 km/h 77 % 0.00 in /  0 mm
21:56 66.7 °F /  19.3 °C 59.3 °F /  15.2 °C 30.10 in /  1019.2 hPa Calm   3.5 mph /  5.6 km/h 77 % 0.00 in /  0 mm
22:01 66.6 °F /  19.2 °C 59.2 °F /  15.1 °C 30.10 in /  1019.2 hPa SSE 0.1 mph /  0.2 km/h   77 % 0.00 in /  0 mm
22:06 66.5 °F /  19.2 °C 59.1 °F /  15.1 °C 30.10 in /  1019.2 hPa Calm   1.2 mph /  1.9 km/h 77 % 0.00 in /  0 mm
22:11 66.4 °F /  19.1 °C 59.0 °F /  15 °C 30.10 in /  1019.2 hPa Calm   1.0 mph /  1.6 km/h 77 % 0.00 in /  0 mm
22:16 66.3 °F /  19.1 °C 59.2 °F /  15.1 °C 30.10 in /  1019.2 hPa Calm     78 % 0.00 in /  0 mm
22:21 66.3 °F /  19.1 °C 59.2 °F /  15.1 °C 30.10 in /  1019.2 hPa Calm   1.2 mph /  1.9 km/h 78 % 0.00 in /  0 mm
22:27 66.2 °F /  19 °C 59.5 °F /  15.3 °C 30.09 in /  1018.8 hPa SSE 0.1 mph /  0.2 km/h 1.2 mph /  1.9 km/h 79 % 0.00 in /  0 mm
22:32 66.1 °F /  18.9 °C 59.4 °F /  15.2 °C 30.09 in /  1018.8 hPa Calm   3.5 mph /  5.6 km/h 79 % 0.00 in /  0 mm
22:37 66.0 °F /  18.9 °C 59.3 °F /  15.2 °C 30.09 in /  1018.8 hPa Calm     79 % 0.00 in /  0 mm
22:42 66.0 °F /  18.9 °C 59.3 °F /  15.2 °C 30.09 in /  1018.8 hPa Calm   1.2 mph /  1.9 km/h 79 % 0.00 in /  0 mm
22:47 65.9 °F /  18.8 °C 59.2 °F /  15.1 °C 30.09 in /  1018.8 hPa Calm     79 % 0.00 in /  0 mm
22:52 65.8 °F /  18.8 °C 59.1 °F /  15.1 °C 30.09 in /  1018.8 hPa Calm     79 % 0.00 in /  0 mm
22:57 65.8 °F /  18.8 °C 59.5 °F /  15.3 °C 30.09 in /  1018.8 hPa Calm     80 % 0.00 in /  0 mm
23:02 65.7 °F /  18.7 °C 59.4 °F /  15.2 °C 30.09 in /  1018.8 hPa Calm     80 % 0.00 in /  0 mm
23:07 65.6 °F /  18.7 °C 59.3 °F /  15.2 °C 30.09 in /  1018.8 hPa Calm   1.2 mph /  1.9 km/h 80 % 0.00 in /  0 mm
23:12 65.5 °F /  18.6 °C 59.2 °F /  15.1 °C 30.09 in /  1018.8 hPa SSE 0.2 mph /  0.3 km/h 1.2 mph /  1.9 km/h 80 % 0.00 in /  0 mm
23:17 65.4 °F /  18.6 °C 59.1 °F /  15.1 °C 30.09 in /  1018.8 hPa Calm     80 % 0.00 in /  0 mm
23:22 65.2 °F /  18.4 °C 58.9 °F /  14.9 °C 30.09 in /  1018.8 hPa SSE 0.1 mph /  0.2 km/h 1.2 mph /  1.9 km/h 80 % 0.00 in /  0 mm
23:27 65.1 °F /  18.4 °C 58.8 °F /  14.9 °C 30.09 in /  1018.8 hPa Calm     80 % 0.00 in /  0 mm
23:32 65.0 °F /  18.3 °C 59.0 °F /  15 °C 30.09 in /  1018.8 hPa SSE 0.1 mph /  0.2 km/h 1.2 mph /  1.9 km/h 81 % 0.00 in /  0 mm
23:37 64.9 °F /  18.3 °C 58.9 °F /  14.9 °C 30.09 in /  1018.8 hPa Calm     81 % 0.00 in /  0 mm
23:42 64.7 °F /  18.2 °C 58.7 °F /  14.8 °C 30.09 in /  1018.8 hPa Calm     81 % 0.00 in /  0 mm
23:48 64.6 °F /  18.1 °C 58.6 °F /  14.8 °C 30.09 in /  1018.8 hPa Calm   1.2 mph /  1.9 km/h 81 % 0.00 in /  0 mm
23:53 64.4 °F /  18 °C 58.4 °F /  14.7 °C 30.09 in /  1018.8 hPa Calm     81 % 0.00 in /  0 mm
Crab Meadow Weather
Compliments of Weather Underground - 3 mb

Script developed by  Jim McMurry - jmcmurry@mwt.net Adapted for the template by  Wim van der Kuil - Leuven-Template.eu

Recycling: In 2006, a record 53.4 percent of the paper consumed in the U.S. was recovered for recycling. Americans recovered an extraordinary 53.5 million tons, averaging 360 pounds per person.